User: anonymous   Login
Location: Cutler
(25.6150°N, 80.3110°W)
Time: 14:36:45
(UTC-04:00)
Language:

Cosmos 2360 Rocket - Orbit

View from above orbital plane
View from above orbital plane
View from above satellite
View from above satellite

Ground track
Ground track

The orbit data is extracted from the following two-line orbital elements,

1 25407U 98045B   16238.67299929 -.00000260  00000-0 -10806-3 0  9995
2 25407  71.0118 302.4407 0009968 291.3099  68.6960 14.15747702934350
Epoch (UTC): 25 August 2016 16:09:07
Eccentricity: 0.0009968
inclination: 71.0118°
perigee height: 832 km
apogee height: 847 km
right ascension of ascending node: 302.4407°
argument of perigee: 291.3099°
revolutions per day: 14.15747702
mean anomaly at epoch: 68.6960°
orbit number at epoch: 93435

The dashed part of the orbit path shows where the satellite is in the earth's shadow,  

DLR